THOR ABLESTAR DEB, 336

Orbit data source: Space-Track

THOR ABLESTAR DEB, 336 is space debris in LEO originally from a launch on Thu, 29 Jun 1961 UTC launched from the Air Force Eastern Test Range (AFETR). Debris objects in space refer to the collection of defunct objects orbiting the Earth. Examples of debris include non-operational satellites, rocket bodies, and fragments generated from explosions, collisions, or faulty payload assembly.

Loading next visibility...
Identifier
336, 1961-015DN
Orbit
LEO
Country
Flag of USUS
Related business
Manufacturer
Unknown
Mission
Spacecraft
Bus & Motor
Unknown
Mass
Unknown
Launch date (UTC)
1961-06-29 (64 years ago)
Launch vehicle
Unknown
Launch site
Air Force Eastern Test Range (AFETR)
Object type
Payload
Rocket body
Debris
Shape & HBR
Unknown shape, 0.1 m
Radar Cross Section
Small (<0.1 m²)

Expand to show TLE details & history
Last TLE update: 12 hours ago

TLE from 12 hours ago
0 THOR ABLESTAR DEB
1 00336U 61015DN  25346.80252675  .00000152  00000-0  25097-3 0  9994
2 00336  67.0307 268.7206 0083807 269.3444 121.9416 13.69155505213680
Epoch: 2025-12-12T19:15Z
TLE epoch observation values (Epoch: 2025-12-12T19:15:38.311Z)
Latitude
29.35038°
Longitude
-88.21185°
Altitude
1,038.525 km
Speed
7.319 km/s
True Right ascension
18h 49m 44s
True Declination
29° 12' 33"
Sunlit
Object was in daylight at epoch
Visualization orbit readout
Latitude
Unknown
Longitude
Unknown
Altitude
Unknown
Speed
Unknown
Apparent Right ascension
Unknown
Apparent Declination
Unknown
Sunlit
N/A
Visualization observer readout
Local Sidereal Time
05:21:11
Azimuth
Unknown
Elevation
Unknown
Doppler factor
Unknown
Orbital elements
Apogee altitude
1,062.831 km
Perigee altitude
939.146 km
Semi-major axis
7,379.126 km
Eccentricity
0.00838
Inclination
67.0307°
RAAN
268.7206°
Arg. of periapsis
269.3444°
True anomaly
122.75203°
Mean anomaly
121.9416°
Eccentric anomaly
122.34726°
Mean motion
3.42402 °/min
Orbital period
105.14 mins
BSTAR
0.00025097
Loading maneuver chart data...
Computing Atmospheric mass density...
Loading historical data...
Loading historical data...
Loading historical data...
Loading historical data...
Loading historical data...
Loading historical data...
Loading historical data...

Documentation

Showing up to 5 results
|